Location: Poughquag
(41.6090°N, 73.6820°W)
Time: 03:38:58
(UTC-04:00)

Transit 2A - Pass Details

Date: 31 May 2020
Orbit: 592 x 967 km, 66.7° (Epoch: 06 July)

Event Time Altitude Azimuth Distance (km) Brightness Sun altitude
Rises 23:59:27 0° 322° (NW) 3,578 10.5 -25.2°
Reaches altitude 10° 00:02:07 10° 315° (NW) 2,664 9.5 -25.4°
Maximum altitude 00:07:49 38° 250° (WSW) 1,434 7.2 -25.6°
Enters shadow 00:08:41 36° 232° (SW) 1,474 7.2 -25.6°
Drops below altitude 10° 00:13:37 10° 184° (S) 2,690 - -25.8°
Sets 00:16:19 0° 177° (S) 3,616 - -25.9°
